Погода в Колывани

Погода в Колывани : погода сейчас, прогноз погоды и архив. Всё, что Вы хотите узнать о погоде в Колывани!

Хотите узнать прогноз погоды в Колывани? Тогда Вам сюда: Погода в Колывани

Поиск расширенной информации на нашем сайте:

Полезная информация: дженерики виагры

Другие новости

Новости СМИ2

Главная страница сайта

Новости сайта

02.10.2013

Напоминаем, что на нашем новом сайте вы можете получить высокодетализированные прогнозы погоды по пунктам России, СНГ и мира (включающие важные для авиации метеовеличины, такие как направление и скорость ветра, видимость, явления погоды, количество и форма облачности, нижняя и верхняя граница облачности), а также ознакомиться с разнообразными материалами по авиационной метеорологии и подборкой полезных ссылок на эту тему.

Сайт Метеоцентр.Азия посвящён разработке технологий оптимизации авиаметеорологического обслуживания, включая проектирование и перспективное создание нескольких автоматизированных авиаметеорологических систем:
- система выпуска высокодетальных прогностических карт явлений погоды для нижнего воздушного пространства по России и ближнему зарубежью;
- система верификации прогнозов TAF (выпускаемых синоптиками официальных АМСГ РФ и ближнего зарубежья) и AUTOTAF (выпускаемых сайтом Метеоцентр.Азия) - выявление ошибок, онлайн-сопоставление с фактической погодой METAR, автоматическое внесение коррективов в прогнозы при резком отклонении фактической погоды от прогноза, подсчёт оправдываемости прогнозов по элементам и в целом;
- система обработки, анализа и отображения авиаметеорологической информации для применения провайдерами метеорологической информации.

Рекомендуем: Отзыв о кухонная мойка из искусственного камня.

Погода в Колывани - сегодня

Время (UTC), дата Ветер
(°,м/с) 
Видим.   Явления Облачность Т
(°С)
Тd
(°С)
f(%) Тe
(°С)
Pmin
(гПа)
dP
(гПа)
Po
(мм)
O2
(г/м3)
Тmin Tmax R s Состояние
почвы
12 24.02.17 тихо ()   20000 м    6/0 средняя, верхняя 
[Ac trans|Ci fib]
-5.6 -10.1 71 -6  1023.7  -1.5  754  311    +1.3       
15 24.02.17 180 (Ю) 20000 м    3/0 верхняя 
[Ci fib]
-7.2 -11.2 73 -9  1023.1  -0.8  753  313           
18 24.02.17 210 (ЮЗ) 20000 м    ясно 
-7.6 -11.6 73 -9  1022.7  -0.4  753  313           
21 24.02.17 200 (Ю) 20000 м    ясно 
-10.6 -13.3 81 -12  1023  0.1  753  317           
00 25.02.17 210 (ЮЗ) 20000 м    4/0 верхняя 
[Ci fib]
-12 -14.1 84 -14  1023.5  0.4  753  319  -12.1      42  очень
неравномерный
сухой снег
(сугробы, заносы) 
03 25.02.17 200 (Ю) 20000 м    6/0 верхняя 
[Ci fib]
-11.4 -13.7 83 -13  1023.6  0.1  753  318  -12.9         
06 25.02.17 230 (ЮЗ) 20000 м    6/0 верхняя 
[Ci fib]
-5.9 -12 62 -7  1022.8  -0.4  753  311           
09 25.02.17 280 (З) 20000 м    10/8 1000 м верхняя 
[Sc|Ci fib]
-5.4 -11.8 61 -5  1022.6  -0.2  753  311           
12 25.02.17 240 (ЮЗ) 20000 м    8/0 средняя, верхняя 
[Ac trans|Ci sp]
-7.9 -12.3 71 -8  1022.4  -0.3  752  313    -3       
15 25.02.17 200 (Ю) 20000 м    10/4 1000 м средняя, верхняя 
[Sc|Ac trans|Ci fib]
-8.4 -10.6 84 -8  1021.7  -0.8  752  314           
18 25.02.17 190 (Ю) 20000 м    10/10 1000 м 
[Sc]
-7.7 -11.3 75 -7  1021.7  0.1  752  313           
21 25.02.17 200 (Ю) 20000 м    10/10 1000 м 
[Sc]
-8.5 -11.7 78 -10  1021.9  0.1  752  314           
00 26.02.17 220 (ЮЗ) 20000 м    10/6 1000 м верхняя 
[Sc|Ci fib]
-10.1 -12.7 81 -12  1023.1  1.1  753  316  -10.1      42  очень
неравномерный
сухой снег
(сугробы, заносы) 
03 26.02.17 210 (ЮЗ) 20000 м    10/0 средняя, верхняя 
[Ac trans|Ci sp]
-10.1 -11.5 89 -12  1024.9  1.8  754  317  -10.1         
06 26.02.17 220 (ЮЗ) 20000 м    10/10 1000 м 
[Sc]
-6.6 -9.5 80 -9  1026.4  1.7  755  313           
09 26.02.17 200 (Ю) 20000 м    10/10 600 м 
[Sc]
-4.9 -8.2 78 -7  1027.3  756  311           
12 26.02.17 190 (Ю) 20000 м    10/10 600 м 
[Sc]
-4.2 -5.8 89 -7  1027.6  0.4  757  310    -4.2       
15 26.02.17 190 (Ю) 20000 м    10/10 600 м 
[Sc]
-3.5 -4.9 90 -6  1027.4  -0.2  756  309           
18 26.02.17 200 (Ю) 5{10}  20000 м    10/10 600 м 
[Sc]
-1.9 -3.8 87 -5  1026.5  -0.7  756  307           
21 26.02.17 180 (Ю) 4000 м  слаб. ливневой снег  10/10 300 м кучево-дожд. 
[Cb cap]
-1.9 -2.8 94 -5  1025.6  -1  755  307           
00 27.02.17 200 (Ю) 20000 м  {ливн. осадки}  10/10 600 м кучево-дожд. 
[Cb cap]
-1.4 -2.4 93 -5  1025.3  -0.2  755  306  -4.2    42  неравномерный
мокрый или
старый снег
100% 
03 27.02.17 200 (Ю) 20000 м    10/10 600 м кучево-дожд. 
[Cb cap]
-1.1 -2.1 93 -4  1026  0.7  755  306           
06 27.02.17 190 (Ю) 20000 м    10/10 600 м кучево-дожд. 
[Cb cap]
-0.3 -1.3 93 -3  1027.1  1.1  756  305           
09 27.02.17 190 (Ю) 20000 м    10/10 600 м кучево-дожд. 
[Cb cap]
+0.6 -0.9 90 -2  1026.9  -0.1  756  304           
12 27.02.17 180 (Ю) 20000 м    10/0 средняя 
[Ac inh]
+1 -1.8 82 -1  1026.8  756  304    +1.4       
Время (UTC), дата Ветер
(°,м/с) 
Видим.   Явления Облачность Т
(°С)
Тd
(°С)
f(%) Тe
(°С)
Pmin
(гПа)
dP
(гПа)
Po
(мм)
O2
(г/м3)
Тmin Tmax R s Состояние
почвы

Для получения пояснительной информации подведите курсор к названию столбца.

ПОГОДА в Колывани - архив

Всё, что Вы хотите узнать о погоде в Колывани - удобно и подробно!

Выберите нужную дату (начиная с 1 января 2015* года) и нажмите кнопку "Найти".
Будут отображены архивные сводки погоды по пункту Колывань, начиная с указанной даты.


Отображать данные в формате CSV (для использования в таблицах Excel)


Внимание! Наш архив погоды предназначен исключительно для личного некоммерческого использования в познавательных целях. Если Вам необходимы официальные справки о состоянии погоды (для производственных, юридических, коммерческих и т.п. целей), обращайтесь в органы Росгидромета.

*Примечание: данная дата относится к архиву по метеостанциям СССР (Россия, СНГ, Балтия).
Архив по метеостанциям Зарубежной Европы и Азии (кроме Китая) хранится 10 дней, по другим регионам земного шара (Китай, Африка, Америка, Австралия, Океания) - 1 день.

Колывань - район местоположения метеостанции


Название, широта, долгота, высота метеостанции:
Колывань 55.3°ш. 82.8°д. 137 м над ур. моря [Российская Федерация]

Дополнительная информация

В oтличие oт бoльшинства пoгoдных сайтoв мы публикуем пoдрoбную метеoинфoрмацию в детальнoм прoфессиoнальнoм фoрмате.

Характеристики температуры и влажнoсти вoздуха измеряются на высoте 2 м в тени вдали oт зданий и деревьев.
Скoрoсть ветра измеряется на высoте 10 м (на урoвне рoста челoвека скoрoсть ветра ниже в 1.5-2 раза). Если метеoстанция нахoдится в гoрoде или в лесу, тo скoрoсть ветра занижена на 2-4 м/с пo сравнению с oткрытым местoм. Скoрoсть ветра над акватoриями крупных рек и oзёр, а также на вершинах хoлмoв на 2-5 м/с выше, чем в oбычных услoвиях.
Атмoсфернoе давление в разных тoчках местнoсти мoжет значительнo oтличаться oт давления на метеoстанции, в зависимoсти oт услoвий рельефа (при пoдъёме на 10 м давление пoнижается примернo на 1 мм рт.ст.).